{"data":{"norad_id":58299,"epoch":"2026-05-25T04:16:33.282336Z","epoch_age_seconds":49771,"freshness":"FRESH","line1":"1 58299U 23174AV  26145.17816299  .00005841  00000+0  17854-3 0  9996","line2":"2 58299  97.3899 228.4111 0006089 220.9720 139.1066 15.34245532141707","mean_motion":15.34245532,"eccentricity":0.0006089,"inclination_deg":97.3899,"raan_deg":228.4111,"arg_perigee_deg":220.972,"mean_anomaly_deg":139.1066,"bstar":0.00017854,"rev_number":14170,"period_min":93.857206683395,"perigee_km":458.99672297614,"apogee_km":467.3280573735,"semimajor_km":6841.2993901748,"source":"CELESTRAK","updated_at":"2026-05-25T13:38:00.647053Z"}}